Temperature
14 14 14 14 14 14 14 14 13 13 13 13 13 13 13 13 13 13 13 13 13 13 12 12 12 12 12 12 12 12 12 12 12 12 12 12 12 12 12 12 12 12 12
14 14 14 14 13 13 13 13 13 13 13 13 13 13 13 12 12 12 12 12 12 12 12 12 12 12 12 12 12 12 12 12 12 12 12 12 12 12 12 11 11 11 11
14 14 14 13 13 13 13 13 13 13 13 13 12 12 12 12 12 12 12 12 12 12 12 12 12 12 12 12 12 12 12 12 12 11 11 11 11 11 11 11 11 11 11
13 13 13 13 13 13 13 13 12 12 12 12 12 12 12 12 12 12 12 12 12 11 11 11 11 11 11 11 11 11 11 11 11 11 11 11 11 11 11 11 11 11 11
13 13 13 12 12 12 12 12 12 12 12 12 12 11 11 11 11 11 11 11 11 11 11 11 11 11 11 11 11 11 11 11 11 11 11 11 10 10 10 10 10 10 10
13 13 12 12 12 12 12 12 12 12 11 11 11 11 11 11 11 11 11 11 11 11 11 11 11 11 11 11 11 10 10 10 10 10 10 10 10 10 10 10 10 10 10
12 12 12 12 12 12 11 11 11 11 11 11 11 11 11 11 11 11 11 11 10 10 10 10 10 10 10 10 10 10 10 10 10 10 10 10 10 10 10 10 10 10 10
12 12 12 11 11 11 11 11 11 11 11 10 10 10 10 10 10 10 10 10 10 10 10 10 10 10 10 10 10 10 10 10 10 10 10 10 10 10 10 10 10 10 9
12 11 11 11 11 11 10 10 10 10 10 10 10 10 10 10 10 10 10 10 9 9 9 9 9 10 10 10 10 9 9 9 10 9 9 9 9 9 10 9 9 9 9
11 11 11 10 10 10 10 10 10 10 10 9 9 9 9 9 9 9 9 9 9 9 9 9 9 9 9 9 9 9 9 9 9 9 9 9 9 9 9 9 9 9 9
11 10 10 10 10 10 10 9 9 9 9 9 9 9 9 9 9 9 9 9 8 8 8 8 8 9 8 8 8 8 8 8 8 8 9 9 9 9 9 9 9 9 9
10 10 10 9 9 9 9 9 9 9 9 9 9 8 8 8 8 8 8 8 8 8 8 8 8 8 8 8 8 8 8 8 8 8 8 8 8 8 8 8 8 8 8
10 9 9 9 9 8 8 8 8 8 8 8 8 8 8 8 8 8 8 8 7 7 7 7 7 7 7 7 7 7 7 7 7 7 7 7 8 8 8 8 8 8 8
9 9 9 8 8 8 8 8 8 8 8 8 8 7 7 7 7 7 7 7 7 7 7 7 7 7 7 7 7 7 7 7 7 7 7 7 7 7 7 7 7 7 7
8 8 8 8 7 7 7 7 7 7 7 7 7 7 7 7 7 7 7 7 7 6 6 6 6 6 6 6 6 6 6 6 6 6 6 6 6 6 6 6 7 7 7
8 8 7 7 7 7 7 6 7 7 7 7 7 7 7 7 7 7 6 6 6 6 6 5 5 5 5 5 6 6 5 5 5 5 5 6 6 6 6 6 6 6 6
7 7 7 7 7 6 6 6 6 6 6 6 6 6 6 6 6 6 6 6 6 5 5 5 5 5 5 5 5 5 5 5 4 4 5 5 5 5 5 5 5 5 5
6 6 6 6 6 6 6 5 5 5 5 6 6 6 6 6 6 6 6 5 5 5 5 5 4 4 4 4 4 4 4 4 4 4 4 4 4 4 4 4 4 4 5
6 6 6 5 5 5 5 5 5 5 5 5 5 5 5 5 5 5 5 5 5 4 4 4 4 4 4 4 4 4 4 4 3 4 3 4 4 4 4 4 4 4 4
6 5 5 5 5 5 5 5 5 5 5 5 5 5 5 5 4 4 4 4 4 4 4 3 3 3 3 3 3 3 3 3 3 3 3 3 3 3 3 3 3 3 3
5 5 5 5 5 5 4 4 4 4 4 4 4 4 4 4 4 4 4 4 3 3 3 3 3 3 3 3 3 3 3 3 2 3 3 3 3 3 3 3 3 3 3
5 5 4 4 4 4 4 4 4 4 4 3 3 3 3 3 3 3 3 3 3 3 3 2 3 3 2 2 2 2 2 2 2 2 2 2 2 2 2 2 2 2 2
5 4 4 4 4 4 3 3 3 3 3 3 3 3 3 3 3 3 3 3 2 2 2 2 2 2 2 2 2 2 2 2 2 2 2 2 2 2 2 2 1 1 1
4 4 4 4 4 3 3 3 3 3 3 3 3 2 3 3 2 2 2 2 2 2 2 1 1 1 1 1 1 1 1 1 1 1 1 1 1 1 1 1 1 1 1
4 4 3 3 3 3 3 3 3 3 2 2 2 2 2 2 2 2 2 2 1 1 1 1 1 1 1 1 1 1 1 1 1 1 1 1 1 1 1 1 1 1 1
4 3 3 3 3 3 2 2 2 2 2 2 2 2 2 2 2 2 1 1 1 1 1 1 1 1 0 0 0 0 0 0 0 0 0 0 0 0 0 0 0 0 0
Wind_Speed
2 2 2 1 1 1 1 0 1 1 0 1 1 1 2 2 1 1 2 2 2 2 1 1 1 1 1 1 1 1 1 2 1 2 0 1 2 2 2 2 4 5 4
2 1 1 1 1 1 1 1 0 1 1 0 0 0 0 0 0 1 2 2 2 2 2 1 1 1 1 1 1 1 1 1 2 1 1 0 1 2 2 2 3 3 4
1 1 1 1 1 1 1 1 1 1 0 0 1 0 0 0 0 1 2 2 1 2 1 2 2 1 1 1 1 1 1 1 1 2 1 1 1 1 1 1 1 1 2
1 1 1 2 1 1 1 1 1 1 1 0 0 0 0 0 1 1 1 1 1 1 1 2 2 2 2 2 1 1 1 1 1 1 2 1 1 1 1 1 0 1 1
1 1 1 1 1 1 1 1 1 1 1 1 1 0 1 0 1 1 1 2 2 2 2 2 1 1 1 1 1 1 1 2 2 2 2 1 1 1 1 1 1 1 2
1 1 1 1 1 1 2 1 1 1 1 1 1 1 1 1 3 3 2 2 2 1 1 2 2 2 2 2 3 3 2 2 3 2 2 3 3 3 2 2 2 1 2
1 1 1 1 1 0 1 1 1 1 1 0 0 1 2 1 3 3 3 2 2 2 2 1 2 2 2 2 3 4 3 4 4 4 4 4 4 4 3 3 3 2 3
1 1 1 1 1 1 1 1 1 1 0 0 1 0 2 2 2 3 3 2 2 2 2 2 2 2 1 0 1 2 3 4 5 4 4 5 4 4 4 5 5 4 3
2 1 1 1 1 1 1 1 1 1 1 1 0 1 2 1 1 2 3 2 2 2 2 1 1 1 1 1 0 2 3 4 5 6 6 5 5 4 3 2 2 2 2
1 1 1 1 1 1 1 1 0 0 0 0 1 1 1 1 0 1 1 1 2 2 2 1 1 1 1 1 1 2 3 4 3 3 3 4 3 3 3 3 3 3 3
2 2 1 0 1 1 1 1 1 1 0 0 0 1 1 1 0 1 1 1 1 2 2 2 2 1 1 2 2 2 4 4 3 3 3 3 3 3 3 3 4 4 4
2 2 1 0 1 0 1 1 1 1 1 1 0 0 1 0 0 1 2 2 2 1 2 2 2 2 2 3 3 4 5 3 2 2 2 3 3 4 4 4 5 5 5
1 1 1 1 1 1 1 1 1 1 1 1 1 1 1 1 1 2 3 4 4 2 2 3 3 3 3 3 4 4 3 2 2 3 3 3 3 3 2 2 3 3 3
1 1 1 1 1 1 1 0 1 1 1 1 1 1 1 1 1 1 1 1 2 2 2 3 4 5 4 4 3 3 2 2 3 3 3 3 2 2 2 2 2 2 3
2 2 1 1 1 1 1 1 1 2 2 2 2 2 2 2 1 0 0 1 1 1 1 1 2 2 2 2 2 1 1 1 3 3 2 2 2 2 3 2 2 2 3
2 2 1 1 1 1 1 2 2 2 1 2 2 2 1 2 2 1 1 2 2 2 1 1 2 2 2 2 2 1 1 2 2 2 2 2 3 3 3 2 1 2 3
2 2 2 2 1 1 1 1 2 3 3 3 2 2 2 2 1 2 2 2 3 2 1 2 2 2 2 2 2 2 2 2 2 2 2 2 2 2 2 2 2 2 2
2 3 2 2 2 2 2 2 2 2 2 3 3 3 2 3 3 3 2 1 2 2 2 3 3 3 2 2 1 2 2 2 2 2 2 2 2 2 2 2 2 2 2
2 2 2 2 2 2 2 2 3 3 3 2 1 2 3 3 4 4 3 2 2 2 2 2 2 2 2 1 1 2 2 2 2 2 2 2 2 3 3 2 2 3 3
2 4 4 2 2 2 2 3 3 3 2 2 2 1 1 1 2 2 3 2 2 2 2 2 2 1 1 1 2 2 2 2 2 2 2 2 2 2 3 3 3 3 3
2 3 4 3 3 2 2 2 2 2 2 2 2 2 2 2 3 3 2 2 2 2 2 2 2 1 1 1 2 2 3 3 2 2 2 2 3 3 2 2 3 3 3
2 2 2 3 3 3 3 2 2 2 2 2 2 2 2 1 2 2 2 2 2 2 2 1 1 2 1 2 2 2 2 2 2 3 3 3 3 3 3 2 3 3 3
2 2 3 3 2 3 3 2 2 2 2 2 2 2 2 2 2 2 2 2 1 1 1 1 1 2 2 2 2 1 1 1 2 3 3 3 3 3 3 3 4 3 4
2 2 2 3 2 2 2 2 2 2 2 2 2 2 2 2 2 2 2 1 1 1 1 2 2 3 3 3 2 1 2 3 3 3 4 4 4 4 4 4 4 4 4
1 2 2 2 2 2 2 2 2 2 2 2 2 2 2 2 2 2 2 2 1 2 2 3 3 3 4 4 2 1 3 4 4 5 5 4 5 5 4 4 4 4 4
1 2 2 2 2 2 2 2 2 3 3 3 2 2 2 3 2 2 2 1 2 2 3 3 3 4 4 3 3 3 4 4 5 7 6 5 4 4 4 4 5 4 4
Wind_Direction
194 189 186 189 187 164 131 203 208 218 226 237 235 203 211 205 204 191 198 194 212 240 244 227 242 237 198 204 204 185 185 146 181 278 281 122 124 117 114 154 149 154 169
198 185 185 174 152 155 167 168 203 219 210 226 153 117 203 226 261 240 237 221 212 224 234 239 253 210 157 196 187 201 214 193 174 218 259 137 153 168 152 160 159 169 175
190 162 152 176 198 220 218 179 205 243 221 180 111 143 143 97 290 272 243 242 234 236 239 236 230 187 200 206 181 205 225 211 168 166 224 216 190 178 144 168 171 174 207
160 165 169 187 206 247 252 221 216 228 216 178 168 187 167 131 360 352 326 281 256 237 249 245 211 198 199 188 187 206 211 198 200 185 201 206 198 221 152 168 263 272 276
126 139 167 183 194 272 278 269 247 245 234 193 165 80 49 66 336 27 347 321 307 268 236 225 212 143 121 176 187 197 210 206 208 205 205 195 208 190 197 203 216 254 264
101 74 67 64 72 329 311 311 322 275 255 239 195 162 72 17 23 38 23 315 300 302 279 237 216 186 200 195 196 189 187 205 214 212 209 211 220 214 207 209 196 219 266
116 83 67 60 69 344 321 330 319 283 240 234 41 95 104 57 42 31 358 326 301 290 292 299 287 265 205 207 224 220 220 232 224 213 218 226 220 212 200 210 218 219 233
89 78 69 71 68 27 22 17 345 4 54 120 119 93 114 82 52 30 353 313 310 305 309 309 292 293 308 348 262 239 237 235 232 221 226 234 230 219 207 211 219 223 233
83 68 63 66 68 73 73 41 343 6 3 357 35 76 100 83 51 24 3 305 301 299 304 320 310 277 326 22 324 272 273 270 253 233 227 239 252 245 226 194 219 215 242
77 66 71 80 102 131 154 170 280 211 250 305 33 30 102 112 104 72 38 319 305 303 298 290 303 325 3 9 248 252 263 268 289 276 254 253 251 250 238 200 202 216 225
44 45 64 112 172 169 163 182 200 165 127 16 50 345 26 76 179 196 188 235 287 307 309 306 305 299 285 303 295 256 260 272 268 260 254 241 239 235 231 224 210 207 215
38 31 8 329 284 242 166 209 206 186 193 213 222 290 305 166 164 251 230 239 282 270 283 296 295 298 290 288 282 282 288 297 282 268 263 248 241 241 235 229 228 225 219
15 341 325 334 321 346 220 219 213 209 201 212 217 228 260 238 211 254 244 247 267 263 273 298 301 299 293 274 271 278 279 269 264 261 258 250 244 251 250 247 238 237 241
323 306 296 322 337 329 314 266 225 240 233 227 230 238 244 252 236 217 234 253 275 287 296 301 302 294 287 281 281 277 263 255 244 249 256 255 262 264 256 248 245 244 252
324 324 323 328 309 304 316 290 254 233 216 228 245 228 223 235 251 173 225 259 276 297 315 301 300 300 299 288 289 278 266 283 276 269 261 264 263 264 263 258 237 236 235
325 327 320 317 313 311 315 330 326 281 261 243 231 232 244 220 226 239 262 293 301 298 295 261 271 273 267 272 278 284 282 277 277 275 270 272 273 273 276 280 282 238 237
321 319 319 318 308 295 288 289 301 315 304 286 275 248 218 227 253 269 275 285 285 281 257 250 260 272 274 271 272 271 275 285 290 283 275 276 283 288 291 287 282 268 255
333 321 315 297 292 279 272 271 269 269 277 279 271 259 234 229 246 254 255 285 279 240 221 236 248 257 264 270 281 288 288 298 304 290 278 276 273 276 278 276 265 263 261
322 307 297 290 286 281 280 278 274 271 270 272 259 245 237 241 241 242 223 226 244 250 246 244 248 254 264 273 281 283 280 279 285 280 274 273 266 262 263 260 255 267 267
314 315 320 307 291 280 281 279 275 273 276 279 253 219 202 225 242 235 227 230 241 255 262 258 252 261 269 267 271 282 282 280 279 275 277 278 281 267 253 251 252 256 259
298 301 307 302 286 277 276 272 275 279 279 283 274 243 214 222 227 224 220 233 247 264 271 263 256 254 266 274 276 275 275 279 283 288 296 292 283 277 275 262 253 251 257
274 277 282 283 285 289 288 280 273 273 282 290 289 271 260 255 240 234 231 231 230 248 275 281 288 270 259 258 271 277 283 287 298 304 295 286 283 279 273 266 267 264 260
272 273 278 280 272 278 285 289 293 294 299 296 297 297 278 272 268 261 256 242 241 249 292 306 293 300 311 297 290 282 270 285 305 317 316 304 290 281 280 276 271 272 266
271 271 278 285 281 274 274 277 280 283 285 286 284 279 275 270 271 275 270 264 255 258 270 283 282 288 301 307 310 323 341 330 324 314 307 301 297 285 276 273 268 267 265
290 283 276 276 276 276 274 273 271 272 271 270 273 276 280 275 267 269 269 266 268 266 269 272 272 272 282 291 294 309 329 333 333 323 307 291 287 284 280 273 269 268 266
293 294 294 293 289 282 272 269 272 276 274 274 276 272 271 272 268 266 267 255 256 263 268 267 271 275 279 282 281 289 297 304 310 313 309 290 282 278 282 279 276 266 260
Height
1509 1510 1510 1510 1511 1512 1512 1513 1513 1514 1514 1515 1515 1515 1516 1516 1517 1517 1517 1518 1518 1518 1519 1519 1520 1520 1521 1522 1522 1523 1524 1524 1524 1525 1526 1525 1525 1525 1525 1525 1525 1525 1525
1508 1508 1508 1509 1509 1510 1510 1511 1511 1512 1512 1513 1513 1513 1513 1513 1514 1514 1515 1515 1515 1515 1516 1516 1517 1518 1518 1519 1519 1520 1521 1522 1522 1522 1523 1523 1523 1523 1523 1524 1524 1523 1523
1506 1506 1506 1507 1507 1508 1508 1508 1509 1510 1510 1510 1510 1511 1511 1511 1511 1511 1511 1512 1512 1512 1513 1514 1514 1515 1515 1516 1517 1517 1518 1519 1519 1520 1520 1521 1521 1521 1521 1521 1521 1521 1521
1504 1504 1504 1505 1505 1506 1506 1506 1507 1507 1507 1508 1508 1508 1508 1508 1508 1508 1508 1509 1509 1510 1510 1511 1511 1512 1512 1513 1513 1514 1515 1516 1516 1517 1517 1518 1518 1518 1519 1519 1519 1519 1519
1502 1503 1503 1503 1503 1504 1504 1504 1504 1504 1505 1505 1505 1505 1505 1505 1505 1505 1505 1506 1506 1507 1507 1508 1509 1509 1510 1510 1511 1511 1512 1512 1513 1513 1514 1514 1515 1515 1515 1516 1516 1516 1517
1500 1501 1501 1501 1501 1501 1501 1501 1502 1502 1502 1502 1502 1502 1502 1502 1502 1503 1503 1503 1503 1504 1504 1505 1505 1506 1507 1508 1508 1508 1509 1510 1510 1510 1510 1511 1511 1512 1512 1513 1513 1514 1514
1499 1499 1499 1498 1498 1498 1498 1498 1498 1499 1499 1499 1500 1500 1500 1500 1500 1500 1500 1500 1501 1501 1501 1502 1502 1503 1504 1504 1505 1505 1506 1507 1507 1508 1507 1508 1508 1509 1509 1510 1510 1510 1511
1497 1497 1497 1496 1496 1496 1496 1495 1495 1496 1496 1496 1497 1497 1497 1497 1497 1497 1497 1497 1498 1498 1498 1499 1499 1500 1500 1501 1501 1501 1502 1503 1503 1504 1504 1504 1505 1506 1506 1506 1507 1507 1508
1495 1495 1495 1494 1494 1493 1493 1493 1493 1493 1493 1494 1494 1494 1494 1494 1495 1495 1495 1494 1495 1495 1495 1495 1495 1496 1496 1497 1497 1497 1498 1498 1499 1500 1500 1501 1501 1502 1502 1503 1503 1504 1503
1493 1493 1493 1493 1492 1491 1491 1491 1491 1491 1491 1491 1491 1492 1492 1492 1492 1492 1492 1492 1492 1492 1492 1492 1492 1492 1492 1493 1493 1493 1493 1494 1494 1495 1496 1496 1496 1497 1498 1499 1499 1500 1500
1491 1491 1491 1490 1490 1490 1489 1489 1489 1489 1488 1489 1489 1489 1489 1489 1489 1489 1489 1489 1488 1488 1488 1489 1489 1489 1489 1489 1489 1489 1489 1490 1490 1491 1491 1491 1492 1492 1493 1494 1495 1496 1496
1488 1488 1488 1488 1487 1487 1487 1486 1486 1486 1486 1486 1486 1486 1486 1486 1486 1486 1486 1486 1486 1486 1485 1486 1486 1486 1486 1486 1486 1485 1485 1486 1486 1486 1486 1487 1487 1488 1488 1490 1490 1491 1492
1486 1485 1485 1485 1484 1484 1484 1483 1484 1483 1483 1483 1483 1483 1483 1483 1483 1483 1483 1483 1483 1483 1482 1483 1483 1483 1482 1482 1482 1482 1482 1482 1482 1482 1482 1482 1483 1484 1484 1485 1486 1487 1487
1483 1483 1482 1482 1482 1481 1481 1481 1481 1480 1480 1480 1480 1480 1480 1480 1480 1480 1480 1480 1480 1479 1479 1479 1479 1479 1479 1479 1478 1478 1478 1478 1478 1478 1478 1479 1479 1480 1480 1481 1481 1481 1482
1481 1480 1480 1479 1479 1478 1478 1478 1478 1477 1478 1477 1477 1477 1477 1477 1477 1477 1477 1477 1476 1476 1476 1476 1476 1475 1475 1475 1475 1475 1475 1474 1474 1474 1474 1474 1475 1475 1475 1476 1476 1477 1477
1478 1477 1477 1476 1476 1476 1475 1475 1475 1475 1475 1474 1474 1474 1474 1474 1474 1474 1474 1474 1474 1473 1473 1472 1472 1472 1472 1472 1472 1471 1471 1471 1471 1470 1470 1470 1470 1470 1471 1471 1472 1472 1472
1475 1474 1474 1474 1473 1473 1472 1472 1471 1472 1472 1471 1471 1470 1470 1471 1471 1471 1470 1470 1470 1470 1470 1469 1469 1469 1469 1469 1469 1468 1468 1468 1467 1467 1466 1466 1466 1466 1466 1466 1467 1467 1467
1472 1472 1471 1471 1470 1470 1470 1469 1469 1468 1468 1467 1467 1467 1467 1467 1467 1467 1467 1467 1467 1466 1466 1466 1466 1466 1466 1466 1465 1465 1465 1464 1464 1463 1463 1462 1462 1462 1462 1462 1462 1462 1463
1469 1469 1468 1468 1467 1467 1467 1466 1466 1465 1465 1464 1464 1463 1464 1463 1463 1464 1463 1463 1463 1463 1463 1463 1463 1463 1462 1462 1462 1462 1461 1461 1460 1460 1459 1459 1458 1458 1458 1458 1458 1458 1459
1467 1466 1466 1465 1464 1464 1463 1463 1462 1462 1461 1461 1460 1460 1460 1460 1459 1459 1459 1459 1459 1459 1459 1459 1459 1459 1459 1458 1458 1458 1457 1457 1457 1456 1456 1455 1455 1454 1454 1454 1454 1454 1454
1463 1463 1462 1462 1461 1461 1460 1459 1459 1459 1458 1458 1457 1457 1457 1456 1456 1456 1456 1456 1456 1456 1456 1456 1455 1455 1455 1455 1454 1454 1453 1453 1453 1452 1452 1451 1451 1451 1450 1450 1450 1451 1451
1460 1459 1459 1458 1458 1457 1457 1456 1456 1455 1455 1454 1454 1454 1454 1453 1453 1453 1452 1452 1452 1452 1452 1452 1452 1451 1451 1451 1450 1450 1449 1449 1448 1448 1448 1447 1447 1447 1446 1446 1446 1446 1446
1457 1456 1455 1455 1454 1453 1453 1453 1452 1452 1451 1451 1451 1450 1450 1450 1449 1449 1448 1448 1448 1448 1448 1448 1448 1447 1447 1447 1446 1446 1445 1445 1444 1444 1443 1443 1443 1442 1442 1442 1442 1442 1442
1453 1453 1452 1451 1450 1450 1449 1449 1449 1449 1448 1448 1448 1447 1447 1446 1446 1445 1445 1444 1444 1444 1444 1444 1443 1443 1443 1442 1442 1442 1441 1440 1440 1439 1439 1438 1438 1438 1438 1438 1438 1438 1438
1450 1449 1449 1448 1447 1447 1446 1446 1445 1445 1445 1444 1444 1443 1443 1442 1442 1441 1441 1440 1440 1440 1440 1439 1439 1439 1439 1438 1438 1437 1437 1436 1435 1435 1434 1433 1433 1433 1433 1433 1433 1433 1433
1447 1446 1445 1445 1444 1443 1443 1442 1442 1442 1441 1441 1440 1439 1439 1438 1438 1437 1437 1436 1436 1436 1435 1435 1435 1434 1434 1434 1433 1433 1432 1432 1431 1430 1429 1428 1428 1428 1428 1428 1428 1428 1428